Other Surface Observations
Issued by NWS Tucson, AZ

Home | Current Version | Previous Version | Text Only | Print | Product List | Glossary On
Versions: 1 2 3 4 5 6 7 8 9 10 11 12 13 14 15 16 17 18 19 20 21 22 23 24 25 26 27 28 29 30 31 32 33 34 35 36 37 38 39 40 41 42 43 44 45 46 47 48 49 50
000
SXUS55 KTWC 030316
OSOTWC

WEATHER ROUNDUP FOR SOUTHEAST ARIZONA
NATIONAL WEATHER SERVICE TUCSON AZ
815 PM MST WED SEP 02 2015

AZZ504>506-514-030415-
LOCATION       SKY/WX    TMP DP  RH WIND       PRES   REMARKS
TUCSON         CLOUDY    84  57  39 SE10      29.98R
DAVIS-MONTHAN  CLOUDY    84  55  37 SE10      29.97R
CHILDRENS PARK N/A      N/A N/A  31 SE7               PIMA CO DEQ
ALVERNON/22ND  N/A       88 N/A N/A SE7               PIMA CO DEQ
CHERRY/GLENN   N/A      N/A N/A N/A N/A               PIMA CO DEQ
TANGERINE      N/A       92 N/A N/A S7                PIMA CO DEQ
CONTL RANCH    N/A       94  57  29 SE7               PIMA CO DEQ
GRANT/1ST      N/A       63  50  63 SE6               PIMA CO DEQ
CRAYCROFT/22ND N/A       86  58  39 SE7               PIMA CO DEQ
GOLFLINKS/KOLB N/A      N/A N/A N/A N/A               PIMA CO DEQ
AJO/12TH       N/A       87  56  35 SE7               PIMA CO DEQ
SAGUARO EAST   N/A       29  11  46 N/A               PIMA CO DEQ
FAIRGROUNDS    N/A       82 N/A N/A SE12              PIMA CO DEQ
SAGUARO        N/A       84  63  49 CALM              *SABINO CYN
SAN CARLOS     N/A       84  58  42 SE9G17            *SAN CARLOS
GREEN VALLEY   N/A       82  56  41 SW8               PIMA CO DEQ
HORSE CAMP CYN N/A       77  59  54 E13G20            *ARAVAIPA CYN
RINCON MTNS    N/A       59  48  67 CALM              *NR MANNING CAMP
$$

AZZ509>511-030415-
LOCATION       SKY/WX    TMP DP  RH WIND       PRES   REMARKS
SAFFORD        CLOUDY    75  59  57 SE10      30.05R
STRAY HORSE    N/A       55  50  82 N3                *
TRAIL CABIN    N/A       63  57  81 E5                *N OF GRANVILLE
BLACK HILLS    N/A       77  57  50 SE9G14            *N OF FT THOMAS
DRY LAKE       N/A       62  54  76 S5G10             *NATANES MTNS
NOON CREEK     N/A       71  57  62 SW4G13            *PINALENO MTNS
COLUMBINE      N/A       49  46  90 CALM              *PINALENO MTNS
GUTHRIE        N/A       67  45  45 E6                *SW OF GUTHRIE
$$

AZZ502-503-513-030415-
LOCATION       SKY/WX    TMP DP  RH WIND       PRES   REMARKS
NOGALES        CLOUDY    70  62  76 SW5       30.08R
SELLS          N/A       85  58  40 W5G21             *
SASABE         N/A       83  53  36 S6G10             *ALTAR VLY
HOPKINS        N/A       66  45  47 W5G10             *SANTA RITA MTNS
CARR CYN       N/A       65  61  87 S2                *W OF HEREFORD
$$

AZZ507-508-512-030415-
LOCATION       SKY/WX    TMP DP  RH WIND       PRES   REMARKS
SIERRA VISTA   CLOUDY    69  62  76 SE9       30.15R
DOUGLAS        CLOUDY    72  57  59 E14G25    30.12R
EMPIRE MTNS    N/A       69  63  82 SE3               *LAS CIENEGAS NCA
MULESHOE RANCH N/A       73  60  63 NW3G10            *PRESERVE
HEADQUARTERS   N/A       70  49  47 NE7G16            *CHIRICAHUA MTNS
$$

.............................NOTES.............................
THIS IS AN AUTOMATED COLLECTIVE WITH MINIMAL QUALITY CONTROL.
PIMA CO DEQ SITES HAVE NONSTANDARD WIND SENSOR HEIGHTS.
PIMA CO DEQ SITES DO NOT REPORT WIND GUSTS.
* INDICATES WIND SENSORS LOCATED AT 20 FEET INSTEAD OF 33 FEET.
..............................KEY..............................
SKY/WX - SKY CONDITION/WEATHER
TMP    - TEMPERATURE IN FAHRENHEIT
DP     - DEWPOINT IN FAHRENHEIT
RH     - RELATIVE HUMIDITY IN PERCENT
WIND   - DIRECTION AND SPEED IN MILES PER HOUR (MPH)
VRB    - VARIABLE WIND DIRECTION
PRES   - MEAN SEA LEVEL PRESSURE IN INCHES OF MERCURY
         F - FALLING PRESSURE   R - RISING PRESSURE
         S - STEADY PRESSURE
VSB    - VISIBILITY IN MILES
HX     - HEAT INDEX IN FAHRENHEIT
WCI    - WIND CHILL INDEX IN FAHRENHEIT
N/A    - NOT AVAILABLE
AFB    - AIR FORCE BASE
         DAVIS-MONTHAN IS DAVIS-MONTHAN AIR FORCE BASE
CYN    - CANYON
MTNS   - MOUNTAINS
NCA    - NATIONAL CONSERVATION AREA
NR     - NEAR
VLY    - VALLEY
CONTL  - CONTINENTAL
PIMA CO DEQ - PIMA COUNTY DEPT OF ENVIRONMENTAL QUALITY



USA.gov is the U.S. government's official web portal to all federal, state and local government web resources and services.